Lid_Strength_Index
3 3 3 4 4 4 4 4 4 4 3 3 4 3 3 3 3 5 5 6 6 7 7 7 8 7 7 7 7 7 8 8 10 11 11 11 12 11 10 10 10 11 10
3 3 4 4 4 5 5 5 4 4 4 5 5 5 5 4 5 5 6 6 7 8 8 8 8 7 8 7 8 8 8 8 8 10 12 12 11 11 11 11 10 9 10
4 4 4 4 6 6 6 6 5 4 5 5 5 5 5 5 6 6 6 7 7 7 7 7 7 7 8 8 8 9 9 9 10 10 12 11 10 10 11 11 10 10 9
4 4 5 5 5 6 6 6 6 6 5 5 6 6 6 6 6 6 6 7 7 7 7 7 7 7 8 9 9 10 10 11 11 11 12 12 11 11 11 11 11 11 12
5 5 5 6 6 7 8 8 8 8 7 7 7 7 6 6 6 7 7 8 8 8 8 8 9 8 7 9 10 11 11 11 11 11 11 11 11 12 13 13 14 14 13
5 6 7 7 7 8 8 8 9 9 9 8 8 8 7 6 5 6 7 8 9 9 10 9 7 7 7 7 7 7 8 10 11 12 13 14 14 14 14 14 14 15 15
6 7 7 7 7 8 8 8 8 9 8 8 8 7 7 6 5 6 7 9 9 9 9 9 8 6 7 8 5 6 6 6 8 12 14 14 14 14 14 15 15 15 15
6 7 7 7 8 8 8 9 9 10 9 8 8 8 8 6 4 5 6 9 9 9 9 10 10 10 9 11 11 12 12 12 12 11 13 13 13 13 14 13 14 15 14
6 7 7 7 8 8 9 11 11 11 11 11 10 9 9 8 5 6 9 11 12 12 12 11 11 10 7 8 12 12 12 11 8 8 8 8 8 8 11 14 15 15 15
6 7 7 7 8 10 12 12 12 12 12 11 12 11 7 9 6 7 11 12 13 13 13 11 8 10 7 9 13 13 13 13 12 12 12 10 9 10 8 12 14 15 15
6 6 7 8 11 11 12 13 13 13 13 14 14 13 12 10 9 7 9 13 13 13 13 13 11 8 8 8 9 12 11 11 10 12 11 11 10 10 9 10 10 11 12
6 7 8 11 10 11 12 13 13 14 14 15 15 14 13 12 8 8 8 10 10 13 13 12 10 8 8 8 8 7 7 9 10 11 11 11 11 11 10 10 10 10 10
7 8 10 11 11 12 13 14 14 14 15 15 15 14 14 12 12 8 8 8 8 12 12 9 8 8 9 10 8 7 9 11 11 12 12 12 11 11 10 10 10 10 10
8 10 10 11 12 13 13 13 13 14 15 15 15 15 14 14 13 12 11 10 8 10 9 11 11 10 10 10 11 11 11 11 10 11 11 10 10 10 11 11 12 11 12
9 10 10 11 12 14 13 13 13 14 13 14 15 14 14 14 13 11 11 12 12 11 12 13 13 14 13 13 12 11 11 11 12 10 10 11 10 10 11 11 11 12 13
9 10 10 11 12 13 13 13 10 10 9 9 10 12 12 10 8 8 8 8 8 8 11 13 13 13 13 13 13 13 12 11 11 11 12 12 12 11 11 10 10 11 12
9 9 10 11 12 13 13 13 14 11 8 8 8 9 9 9 7 7 7 7 6 7 12 13 13 13 13 13 13 13 13 12 12 12 13 12 11 11 10 11 12 11 13
9 8 10 11 12 12 13 13 13 13 13 13 8 8 7 7 6 6 6 6 8 9 12 13 13 13 13 13 13 13 12 12 12 11 10 10 10 11 12 12 12 13 13
9 10 11 12 12 12 13 13 13 14 14 14 12 8 7 6 5 5 5 9 10 12 12 11 11 12 13 13 13 12 12 13 13 12 12 12 11 11 12 12 13 11 11
9 9 10 12 11 13 13 13 14 14 14 13 12 12 10 7 8 8 9 9 10 10 10 10 12 12 12 13 12 12 12 12 12 12 11 12 12 12 12 11 12 12 12
10 10 10 11 12 12 13 13 13 14 13 13 13 11 7 9 9 9 9 10 10 10 10 10 13 13 12 12 12 12 12 12 12 10 10 11 11 10 10 11 11 10 10
10 10 11 11 12 12 13 13 13 13 13 13 13 11 6 11 9 9 10 10 10 10 10 11 14 13 13 13 12 13 13 11 10 10 10 10 10 11 11 12 12 11 11
10 10 11 11 12 11 12 13 13 13 13 13 12 11 9 10 10 10 10 10 10 10 11 13 14 13 12 12 12 11 12 10 10 9 11 11 12 11 11 11 10 10 10
9 10 11 11 12 12 13 13 12 11 12 12 12 12 10 10 10 11 11 10 10 11 12 14 14 13 13 12 11 10 9 10 9 9 10 11 11 11 11 10 10 9 9
9 10 11 11 11 12 13 13 12 12 12 12 12 12 10 10 12 12 12 12 11 12 14 15 15 13 12 12 11 9 9 8 9 9 10 10 11 11 10 9 8 9 8
9 10 10 11 12 12 13 12 12 12 12 12 12 12 11 12 12 12 12 12 13 14 14 15 14 13 12 12 11 9 9 10 10 10 10 10 11 11 11 11 10 10 10